| time (UTC) | temp C | wind direction | speed KPH | gust KPH | rain 1hr cm | rain 24hr cm | rain mn cm | humidity % | barometer mb |
| 20260508065547 | 10 | 95 | 3.2 | 9.7 | 0.00 | 0.64 | 0.00 | 75 | 1010.8 |
| 20260508065046 | 10 | 138 | 1.6 | 4.8 | 0.00 | 0.64 | 0.00 | 75 | 1011.1 |
| 20260508064605 | 10 | 164 | 0.0 | 4.8 | 0.00 | 0.64 | 0.00 | 75 | 1011.0 |
| 20260508064044 | 10 | 41 | 1.6 | 6.4 | 0.00 | 0.64 | 0.00 | 76 | 1010.9 |
| 20260508063544 | 10 | 88 | 1.6 | 8.0 | 0.00 | 0.64 | 0.00 | 75 | 1011.0 |
| 20260508063049 | 10 | 127 | 0.0 | 11.3 | 0.00 | 0.64 | 0.00 | 75 | 1010.9 |
| 20260508062542 | 10 | 74 | 3.2 | 11.3 | 0.00 | 0.64 | 0.00 | 76 | 1010.8 |
| 20260508062042 | 10 | 116 | 4.8 | 11.3 | 0.00 | 0.64 | 0.00 | 76 | 1010.8 |
| 20260508061555 | 10 | 83 | 3.2 | 11.3 | 0.00 | 0.64 | 0.00 | 76 | 1010.7 |
| 20260508061043 | 10 | 100 | 3.2 | 9.7 | 0.00 | 0.64 | 0.00 | 76 | 1010.7 |
| 20260508060546 | 10 | 99 | 1.6 | 8.0 | 0.00 | 0.64 | 0.00 | 77 | 1010.7 |
| 20260508060052 | 10 | 0 | 0.0 | 11.3 | 0.00 | 0.64 | 0.00 | 77 | 1010.8 |
| 20260508055545 | 9 | 92 | 3.2 | 11.3 | 0.00 | 0.64 | 0.00 | 77 | 1010.8 |
| 20260508055045 | 9 | 84 | 4.8 | 9.7 | 0.00 | 0.64 | 0.00 | 77 | 1010.7 |
| 20260508054551 | 9 | 76 | 1.6 | 12.9 | 0.00 | 0.64 | 0.00 | 77 | 1010.7 |
| 20260508054045 | 9 | 120 | 3.2 | 12.9 | 0.00 | 0.64 | 0.00 | 77 | 1010.8 |
| 20260508053545 | 10 | 14 | 1.6 | 8.0 | 0.00 | 0.64 | 0.00 | 77 | 1010.8 |
| 20260508053103 | 9 | 5 | 3.2 | 12.9 | 0.00 | 0.64 | 0.00 | 77 | 1011.0 |
| 20260508052545 | 9 | 3 | 4.8 | 12.9 | 0.00 | 0.64 | 0.00 | 77 | 1011.0 |
| 20260508052042 | 10 | 5 | 0.0 | 8.0 | 0.00 | 0.64 | 0.00 | 77 | 1011.0 |
| 20260508051552 | 10 | 0 | 1.6 | 8.0 | 0.00 | 0.64 | 0.00 | 76 | 1010.9 |
| 20260508051045 | 10 | 9 | 1.6 | 6.4 | 0.00 | 0.64 | 0.00 | 76 | 1010.9 |
| 20260508050545 | 10 | 110 | 1.6 | 9.7 | 0.00 | 0.64 | 0.00 | 76 | 1010.8 |
| 20260508050047 | 10 | 102 | 1.6 | 9.7 | 0.00 | 0.64 | 0.00 | 76 | 1010.8 |
| 20260508045542 | 10 | 41 | 0.0 | 8.0 | 0.00 | 0.64 | 0.00 | 76 | 1010.8 |
| 20260508045044 | 10 | 55 | 0.0 | 8.0 | 0.00 | 0.64 | 0.00 | 76 | 1010.9 |
| 20260508044551 | 10 | 64 | 3.2 | 8.0 | 0.00 | 0.64 | 0.00 | 76 | 1010.8 |
| 20260508044042 | 10 | 79 | 1.6 | 6.4 | 0.00 | 0.64 | 0.00 | 76 | 1010.9 |
| 20260508043542 | 10 | 155 | 0.0 | 6.4 | 0.00 | 0.64 | 0.00 | 76 | 1010.7 |
| 20260508043101 | 10 | 106 | 3.2 | 6.4 | 0.00 | 0.64 | 0.00 | 76 | 1010.7 |
| 20260508042545 | 10 | 116 | 1.6 | 6.4 | 0.00 | 0.64 | 0.00 | 76 | 1010.6 |
| 20260508042044 | 10 | 0 | 0.0 | 6.4 | 0.00 | 0.64 | 0.00 | 76 | 1010.5 |
| 20260508041550 | 10 | 76 | 0.0 | 6.4 | 0.00 | 0.64 | 0.00 | 76 | 1010.5 |
| 20260508041045 | 10 | 47 | 1.6 | 6.4 | 0.00 | 0.64 | 0.00 | 76 | 1010.5 |
| 20260508040544 | 10 | 0 | 0.0 | 6.4 | 0.00 | 0.64 | 0.00 | 76 | 1010.3 |
| 20260508040050 | 10 | 91 | 0.0 | 4.8 | 0.00 | 0.64 | 0.00 | 76 | 1010.4 |
| 20260508035543 | 10 | 86 | 0.0 | 4.8 | 0.00 | 0.64 | 0.00 | 76 | 1010.4 |
| 20260508035044 | 10 | 0 | 0.0 | 4.8 | 0.00 | 0.64 | 0.00 | 76 | 1010.3 |
| 20260508034547 | 10 | 0 | 0.0 | 4.8 | 0.00 | 0.64 | 0.00 | 77 | 1010.3 |
| 20260508034044 | 10 | 0 | 1.6 | 6.4 | 0.00 | 0.64 | 0.00 | 77 | 1010.3 |
| 20260508033543 | 10 | 0 | 0.0 | 6.4 | 0.00 | 0.64 | 0.00 | 77 | 1010.3 |
| 20260508033049 | 10 | 0 | 3.2 | 6.4 | 0.00 | 0.64 | 0.00 | 76 | 1010.2 |
| 20260508032542 | 10 | 25 | 1.6 | 6.4 | 0.00 | 0.64 | 0.00 | 76 | 1010.4 |
| 20260508032043 | 10 | 121 | 0.0 | 4.8 | 0.00 | 0.64 | 0.00 | 76 | 1010.4 |
| 20260508031554 | 10 | 24 | 1.6 | 6.4 | 0.00 | 0.64 | 0.00 | 76 | 1010.5 |
| 20260508031042 | 10 | 70 | 1.6 | 6.4 | 0.00 | 0.64 | 0.00 | 76 | 1010.5 |
| 20260508030544 | 10 | 74 | 0.0 | 4.8 | 0.00 | 0.64 | 0.00 | 77 | 1010.6 |
| 20260508030058 | 10 | 51 | 0.0 | 6.4 | 0.00 | 0.64 | 0.00 | 77 | 1010.5 |
| 20260508025545 | 10 | 0 | 3.2 | 6.4 | 0.00 | 0.64 | 0.00 | 77 | 1010.4 |
| 20260508025044 | 10 | 16 | 1.6 | 4.8 | 0.00 | 0.64 | 0.00 | 76 | 1010.4 |
| 20260508024556 | 10 | 112 | 0.0 | 4.8 | 0.00 | 0.64 | 0.00 | 77 | 1010.3 |
| 20260508024045 | 10 | 0 | 0.0 | 4.8 | 0.00 | 0.64 | 0.00 | 77 | 1010.4 |
| 20260508023544 | 10 | 0 | 0.0 | 4.8 | 0.00 | 0.64 | 0.00 | 77 | 1010.3 |
| 20260508023050 | 10 | 0 | 0.0 | 8.0 | 0.00 | 0.64 | 0.00 | 77 | 1010.3 |
| 20260508022545 | 10 | 77 | 0.0 | 8.0 | 0.00 | 0.64 | 0.00 | 77 | 1010.3 |
| 20260508022045 | 10 | 48 | 1.6 | 6.4 | 0.00 | 0.64 | 0.00 | 77 | 1010.2 |
| 20260508021551 | 10 | 109 | 1.6 | 6.4 | 0.00 | 0.64 | 0.00 | 77 | 1010.2 |
| 20260508021042 | 10 | 0 | 0.0 | 3.2 | 0.00 | 0.64 | 0.00 | 77 | 1010.3 |
| 20260508020542 | 10 | 0 | 0.0 | 4.8 | 0.00 | 0.64 | 0.00 | 77 | 1010.4 |
| 20260508020056 | 10 | 0 | 0.0 | 4.8 | 0.00 | 0.64 | 0.00 | 77 | 1010.6 |
| 20260508015542 | 10 | 0 | 0.0 | 4.8 | 0.00 | 0.64 | 0.00 | 77 | 1010.6 |
| 20260508015044 | 10 | 52 | 1.6 | 11.3 | 0.00 | 0.64 | 0.00 | 77 | 1010.6 |
| 20260508014550 | 10 | 0 | 0.0 | 11.3 | 0.00 | 0.64 | 0.00 | 77 | 1010.7 |
| 20260508014043 | 10 | 120 | 1.6 | 11.3 | 0.00 | 0.64 | 0.00 | 77 | 1010.8 |
| 20260508013544 | 10 | 76 | 1.6 | 6.4 | 0.00 | 0.64 | 0.00 | 77 | 1011.0 |
| 20260508013050 | 10 | 6 | 1.6 | 6.4 | 0.00 | 0.64 | 0.00 | 77 | 1011.2 |
| 20260508012544 | 10 | 0 | 0.0 | 6.4 | 0.00 | 0.64 | 0.00 | 77 | 1011.1 |
| 20260508012046 | 10 | 0 | 0.0 | 9.7 | 0.00 | 0.64 | 0.00 | 77 | 1011.2 |
| 20260508011550 | 10 | 169 | 1.6 | 9.7 | 0.00 | 0.64 | 0.00 | 77 | 1011.2 |
| 20260508011045 | 10 | 143 | 3.2 | 14.5 | 0.00 | 0.64 | 0.00 | 77 | 1011.2 |
| 20260508010543 | 10 | 42 | 4.8 | 14.5 | 0.00 | 0.64 | 0.00 | 77 | 1011.1 |
| 20260508010055 | 10 | 152 | 3.2 | 12.9 | 0.00 | 0.64 | 0.00 | 77 | 1011.2 |
| 20260508005543 | 10 | 114 | 3.2 | 12.9 | 0.00 | 0.64 | 0.00 | 77 | 1011.3 |
| 20260508005046 | 10 | 141 | 3.2 | 12.9 | 0.00 | 0.64 | 0.00 | 77 | 1011.3 |
| 20260508004554 | 10 | 122 | 1.6 | 9.7 | 0.00 | 0.64 | 0.00 | 77 | 1011.4 |
| 20260508004045 | 10 | 75 | 1.6 | 8.0 | 0.00 | 0.64 | 0.00 | 77 | 1011.4 |
| 20260508003542 | 11 | 128 | 1.6 | 9.7 | 0.00 | 0.64 | 0.00 | 77 | 1011.5 |
| 20260508003049 | 11 | 130 | 1.6 | 9.7 | 0.00 | 0.64 | 0.00 | 77 | 1011.6 |
| 20260508002542 | 11 | 0 | 1.6 | 6.4 | 0.00 | 0.64 | 0.00 | 77 | 1011.6 |
| 20260508002042 | 11 | 90 | 1.6 | 3.2 | 0.00 | 0.64 | 0.00 | 77 | 1011.6 |
| 20260508001548 | 11 | 112 | 0.0 | 3.2 | 0.00 | 0.64 | 0.00 | 77 | 1011.6 |
| 20260508001042 | 11 | 112 | 0.0 | 3.2 | 0.00 | 0.64 | 0.00 | 77 | 1011.7 |
| 20260508000544 | 11 | 0 | 0.0 | 4.8 | 0.00 | 0.64 | 0.00 | 77 | 1011.8 |
| 20260508000050 | 11 | 0 | 1.6 | 4.8 | 0.00 | 0.64 | 0.00 | 77 | 1011.8 |
| 20260507235545 | 11 | 0 | 0.0 | 6.4 | 0.00 | 0.64 | 0.00 | 77 | 1011.9 |
| 20260507235044 | 11 | 0 | 0.0 | 6.4 | 0.00 | 0.64 | 0.00 | 76 | 1011.9 |
| 20260507234551 | 11 | 36 | 0.0 | 4.8 | 0.00 | 0.64 | 0.00 | 76 | 1011.9 |
| 20260507234044 | 11 | 0 | 0.0 | 6.4 | 0.00 | 0.64 | 0.00 | 76 | 1011.8 |
| 20260507233542 | 11 | 0 | 0.0 | 6.4 | 0.00 | 0.64 | 0.00 | 75 | 1011.8 |
| 20260507233052 | 11 | 121 | 1.6 | 6.4 | 0.00 | 0.64 | 0.00 | 75 | 1011.9 |
| 20260507232547 | 11 | 168 | 1.6 | 6.4 | 0.00 | 0.64 | 0.00 | 75 | 1012.0 |
| 20260507232042 | 11 | 0 | 1.6 | 6.4 | 0.00 | 0.64 | 0.00 | 74 | 1012.0 |
| 20260507231555 | 11 | 54 | 0.0 | 4.8 | 0.00 | 0.64 | 0.00 | 74 | 1012.1 |
| 20260507231044 | 11 | 176 | 0.0 | 3.2 | 0.00 | 0.64 | 0.00 | 74 | 1012.1 |
| 20260507230543 | 11 | 0 | 0.0 | 3.2 | 0.00 | 0.64 | 0.00 | 73 | 1012.2 |
| 20260507230059 | 11 | 0 | 0.0 | 3.2 | 0.00 | 0.64 | 0.00 | 73 | 1012.3 |
| 20260507225545 | 11 | 0 | 0.0 | 3.2 | 0.00 | 0.64 | 0.00 | 73 | 1012.3 |
| 20260507225045 | 11 | 176 | 0.0 | 3.2 | 0.00 | 0.64 | 0.00 | 73 | 1012.4 |
| 20260507224553 | 11 | 0 | 0.0 | 6.4 | 0.00 | 0.64 | 0.00 | 73 | 1012.4 |
| 20260507224044 | 11 | 0 | 0.0 | 6.4 | 0.00 | 0.64 | 0.00 | 73 | 1012.4 |
| 20260507223547 | 11 | 0 | 0.0 | 8.0 | 0.00 | 0.64 | 0.00 | 73 | 1012.2 |
| 20260507223048 | 11 | 109 | 1.6 | 8.0 | 0.00 | 0.64 | 0.00 | 73 | 1012.2 |
| 20260507222543 | 11 | 0 | 3.2 | 8.0 | 0.00 | 0.64 | 0.00 | 73 | 1012.2 |
| 20260507222044 | 11 | 121 | 3.2 | 9.7 | 0.00 | 0.64 | 0.00 | 73 | 1012.2 |
| 20260507221551 | 12 | 114 | 3.2 | 9.7 | 0.00 | 0.64 | 0.00 | 72 | 1012.3 |
| 20260507221048 | 12 | 149 | 1.6 | 4.8 | 0.00 | 0.64 | 0.00 | 72 | 1012.3 |
| 20260507220542 | 12 | 0 | 0.0 | 6.4 | 0.00 | 0.64 | 0.00 | 72 | 1012.3 |
| 20260507220051 | 12 | 148 | 1.6 | 6.4 | 0.00 | 0.64 | 0.00 | 71 | 1012.4 |
| 20260507215547 | 12 | 154 | 1.6 | 6.4 | 0.00 | 0.64 | 0.64 | 71 | 1012.4 |
| 20260507215044 | 12 | 136 | 0.0 | 6.4 | 0.00 | 0.64 | 0.64 | 71 | 1012.3 |
| 20260507214552 | 12 | 0 | 0.0 | 6.4 | 0.00 | 0.64 | 0.64 | 71 | 1012.2 |
| 20260507214044 | 12 | 136 | 1.6 | 6.4 | 0.00 | 0.64 | 0.64 | 71 | 1012.1 |
| 20260507213543 | 12 | 146 | 1.6 | 6.4 | 0.00 | 0.64 | 0.64 | 71 | 1012.2 |
| 20260507213106 | 12 | 155 | 0.0 | 6.4 | 0.00 | 0.64 | 0.64 | 71 | 1012.1 |
| 20260507212545 | 12 | 0 | 1.6 | 8.0 | 0.00 | 0.64 | 0.64 | 71 | 1012.1 |
| 20260507212045 | 12 | 148 | 1.6 | 8.0 | 0.00 | 0.64 | 0.64 | 71 | 1012.1 |
| 20260507211557 | 12 | 168 | 1.6 | 8.0 | 0.00 | 0.64 | 0.64 | 70 | 1012.1 |
| 20260507211043 | 12 | 157 | 1.6 | 8.0 | 0.00 | 0.64 | 0.64 | 69 | 1012.1 |
| 20260507210545 | 12 | 157 | 1.6 | 8.0 | 0.00 | 0.64 | 0.64 | 68 | 1012.0 |
| 20260507210058 | 12 | 87 | 0.0 | 4.8 | 0.00 | 0.64 | 0.64 | 68 | 1011.9 |
| 20260507205544 | 12 | 134 | 0.0 | 6.4 | 0.00 | 0.64 | 0.64 | 68 | 1011.8 |
| 20260507205047 | 12 | 0 | 1.6 | 6.4 | 0.00 | 0.64 | 0.64 | 67 | 1011.9 |
| 20260507204557 | 12 | 64 | 0.0 | 4.8 | 0.00 | 0.64 | 0.64 | 68 | 1011.7 |
| 20260507204042 | 12 | 0 | 0.0 | 4.8 | 0.00 | 0.64 | 0.64 | 68 | 1011.6 |
| 20260507203544 | 12 | 0 | 0.0 | 6.4 | 0.00 | 0.64 | 0.64 | 67 | 1011.5 |
| 20260507203056 | 12 | 0 | 1.6 | 6.4 | 0.00 | 0.64 | 0.64 | 67 | 1011.4 |
| 20260507202543 | 12 | 67 | 1.6 | 6.4 | 0.00 | 0.64 | 0.64 | 67 | 1011.3 |
| 20260507202042 | 12 | 0 | 0.0 | 6.4 | 0.00 | 0.64 | 0.64 | 67 | 1011.3 |
| 20260507201603 | 12 | 0 | 0.0 | 8.0 | 0.00 | 0.64 | 0.64 | 66 | 1011.1 |
| 20260507201044 | 12 | 0 | 0.0 | 8.0 | 0.00 | 0.64 | 0.64 | 66 | 1011.2 |
| 20260507200544 | 12 | 0 | 3.2 | 9.7 | 0.00 | 0.64 | 0.64 | 66 | 1010.9 |
| 20260507200056 | 12 | 146 | 4.8 | 9.7 | 0.00 | 0.64 | 0.64 | 67 | 1011.0 |
| 20260507195543 | 13 | 0 | 1.6 | 8.0 | 0.00 | 0.64 | 0.64 | 67 | 1010.9 |
| 20260507195045 | 13 | 70 | 1.6 | 8.0 | 0.00 | 0.64 | 0.64 | 67 | 1010.8 |
| 20260507194603 | 13 | 0 | 3.2 | 6.4 | 0.00 | 0.64 | 0.64 | 67 | 1010.7 |
| 20260507194044 | 13 | 0 | 1.6 | 6.4 | 0.00 | 0.64 | 0.64 | 67 | 1010.7 |
| 20260507193546 | 13 | 57 | 0.0 | 6.4 | 0.00 | 0.64 | 0.64 | 66 | 1010.6 |
| 20260507193057 | 13 | 60 | 1.6 | 4.8 | 0.00 | 0.64 | 0.64 | 66 | 1010.5 |
| 20260507192542 | 13 | 77 | 0.0 | 4.8 | 0.00 | 0.64 | 0.64 | 65 | 1010.3 |
| 20260507192042 | 13 | 58 | 1.6 | 4.8 | 0.00 | 0.64 | 0.64 | 65 | 1010.3 |
| 20260507191615 | 13 | 87 | 1.6 | 4.8 | 0.00 | 0.64 | 0.64 | 65 | 1010.3 |
| 20260507191043 | 13 | 72 | 0.0 | 6.4 | 0.00 | 0.64 | 0.64 | 64 | 1010.3 |
| 20260507190544 | 13 | 72 | 1.6 | 6.4 | 0.00 | 0.64 | 0.64 | 63 | 1010.3 |
| 20260507190051 | 13 | 26 | 1.6 | 6.4 | 0.00 | 0.64 | 0.64 | 64 | 1010.1 |
| 20260507185541 | 13 | 0 | 1.6 | 6.4 | 0.00 | 0.64 | 0.64 | 63 | 1009.9 |
| 20260507185045 | 13 | 0 | 1.6 | 6.4 | 0.00 | 0.64 | 0.64 | 62 | 1009.9 |
| 20260507184602 | 13 | 0 | 1.6 | 6.4 | 0.00 | 0.64 | 0.64 | 61 | 1010.0 |
| 20260507184045 | 13 | 358 | 1.6 | 9.7 | 0.00 | 0.64 | 0.64 | 62 | 1009.9 |
| 20260507183544 | 13 | 43 | 1.6 | 9.7 | 0.00 | 0.64 | 0.64 | 62 | 1009.8 |
| 20260507183104 | 13 | 10 | 3.2 | 9.7 | 0.00 | 0.64 | 0.64 | 61 | 1009.7 |
| 20260507182546 | 13 | 14 | 3.2 | 8.0 | 0.00 | 0.64 | 0.64 | 62 | 1009.7 |
| 20260507182045 | 13 | 351 | 3.2 | 8.0 | 0.00 | 0.64 | 0.64 | 61 | 1009.6 |
| 20260507181555 | 13 | 24 | 0.0 | 8.0 | 0.00 | 0.64 | 0.64 | 62 | 1009.5 |
| 20260507181045 | 13 | 0 | 3.2 | 8.0 | 0.00 | 0.64 | 0.64 | 62 | 1009.6 |
| 20260507180543 | 13 | 5 | 3.2 | 6.4 | 0.00 | 0.64 | 0.64 | 63 | 1009.6 |
| 20260507180056 | 13 | 0 | 3.2 | 12.9 | 0.00 | 0.64 | 0.64 | 62 | 1009.6 |
| 20260507175548 | 13 | 68 | 3.2 | 12.9 | 0.00 | 0.64 | 0.64 | 62 | 1009.6 |
| 20260507175045 | 13 | 76 | 3.2 | 9.7 | 0.00 | 0.64 | 0.64 | 64 | 1009.6 |
| 20260507174557 | 13 | 174 | 1.6 | 9.7 | 0.00 | 0.64 | 0.64 | 63 | 1009.6 |
| 20260507174042 | 13 | 60 | 1.6 | 9.7 | 0.00 | 0.64 | 0.64 | 64 | 1009.6 |
| 20260507173544 | 13 | 116 | 1.6 | 9.7 | 0.00 | 0.64 | 0.64 | 64 | 1009.7 |
| 20260507173057 | 13 | 0 | 1.6 | 9.7 | 0.00 | 0.64 | 0.64 | 64 | 1009.6 |
| 20260507172544 | 13 | 61 | 1.6 | 9.7 | 0.00 | 0.64 | 0.64 | 63 | 1009.7 |
| 20260507172045 | 13 | 62 | 1.6 | 12.9 | 0.00 | 0.64 | 0.64 | 63 | 1009.8 |
| 20260507171604 | 13 | 135 | 1.6 | 12.9 | 0.00 | 0.64 | 0.64 | 63 | 1009.9 |
| 20260507171045 | 14 | 15 | 4.8 | 12.9 | 0.00 | 0.64 | 0.64 | 62 | 1009.8 |
| 20260507170544 | 14 | 43 | 3.2 | 8.0 | 0.00 | 0.64 | 0.64 | 63 | 1009.9 |
| 20260507170055 | 14 | 0 | 1.6 | 14.5 | 0.00 | 0.64 | 0.64 | 64 | 1009.8 |
| 20260507165542 | 13 | 4 | 3.2 | 14.5 | 0.00 | 0.64 | 0.64 | 66 | 1009.8 |
| 20260507165045 | 13 | 14 | 6.4 | 14.5 | 0.00 | 0.64 | 0.64 | 64 | 1009.6 |
| 20260507164619 | 13 | 37 | 3.2 | 12.9 | 0.00 | 0.64 | 0.64 | 67 | 1009.7 |
| 20260507164045 | 13 | 85 | 3.2 | 17.7 | 0.00 | 0.64 | 0.64 | 67 | 1009.6 |
| 20260507163543 | 13 | 117 | 4.8 | 17.7 | 0.00 | 0.64 | 0.64 | 67 | 1009.7 |
| 20260507163053 | 13 | 341 | 3.2 | 14.5 | 0.00 | 0.64 | 0.64 | 68 | 1009.7 |
| 20260507162545 | 13 | 24 | 3.2 | 11.3 | 0.00 | 0.64 | 0.64 | 68 | 1009.7 |
| 20260507162045 | 13 | 7 | 1.6 | 9.7 | 0.00 | 0.64 | 0.64 | 71 | 1009.6 |
| 20260507161601 | 12 | 40 | 0.0 | 14.5 | 0.00 | 0.64 | 0.64 | 73 | 1009.6 |
| 20260507161044 | 12 | 93 | 3.2 | 14.5 | 0.00 | 0.64 | 0.64 | 72 | 1009.4 |
| 20260507160541 | 12 | 161 | 6.4 | 12.9 | 0.00 | 0.64 | 0.64 | 71 | 1009.4 |
| 20260507160052 | 12 | 63 | 6.4 | 14.5 | 0.03 | 0.64 | 0.64 | 71 | 1009.2 |
| 20260507155546 | 12 | 141 | 4.8 | 14.5 | 0.03 | 0.64 | 0.64 | 72 | 1009.2 |
| 20260507155045 | 12 | 148 | 8.0 | 14.5 | 0.03 | 0.64 | 0.64 | 72 | 1009.3 |
| 20260507154555 | 12 | 124 | 4.8 | 12.9 | 0.05 | 0.64 | 0.64 | 71 | 1009.2 |
| 20260507154042 | 12 | 132 | 3.2 | 12.9 | 0.08 | 0.64 | 0.64 | 73 | 1009.2 |
| 20260507153547 | 12 | 151 | 3.2 | 12.9 | 0.13 | 0.64 | 0.64 | 72 | 1009.2 |
| 20260507153052 | 12 | 110 | 4.8 | 11.3 | 0.15 | 0.64 | 0.64 | 71 | 1009.3 |
| 20260507152544 | 12 | 146 | 4.8 | 9.7 | 0.15 | 0.64 | 0.64 | 72 | 1009.4 |
| 20260507152046 | 12 | 141 | 4.8 | 9.7 | 0.18 | 0.64 | 0.64 | 73 | 1009.7 |
| 20260507151552 | 12 | 122 | 3.2 | 9.7 | 0.15 | 0.61 | 0.61 | 75 | 1010.0 |
| 20260507151042 | 12 | 130 | 3.2 | 14.5 | 0.18 | 0.61 | 0.61 | 74 | 1010.1 |
| 20260507150544 | 12 | 130 | 1.6 | 16.1 | 0.20 | 0.61 | 0.61 | 75 | 1010.2 |
| 20260507150054 | 11 | 205 | 6.4 | 16.1 | 0.20 | 0.58 | 0.58 | 75 | 1010.3 |
| 20260507145544 | 11 | 149 | 6.4 | 14.5 | 0.20 | 0.58 | 0.58 | 77 | 1010.3 |
| 20260507145041 | 11 | 179 | 4.8 | 16.1 | 0.28 | 0.58 | 0.58 | 78 | 1010.2 |
| 20260507144552 | 11 | 147 | 6.4 | 16.1 | 0.38 | 0.56 | 0.56 | 77 | 1010.2 |
| 20260507144045 | 11 | 194 | 9.7 | 14.5 | 0.46 | 0.53 | 0.53 | 76 | 1010.3 |
| 20260507143541 | 11 | 191 | 6.4 | 12.9 | 0.46 | 0.48 | 0.48 | 76 | 1010.4 |
| 20260507143108 | 11 | 190 | 6.4 | 16.1 | 0.46 | 0.46 | 0.46 | 75 | 1010.3 |
| 20260507142541 | 11 | 170 | 6.4 | 16.1 | 0.46 | 0.46 | 0.46 | 74 | 1010.1 |
| 20260507142045 | 12 | 124 | 3.2 | 12.9 | 0.43 | 0.46 | 0.46 | 73 | 1009.9 |
| 20260507141611 | 12 | 114 | 4.8 | 14.5 | 0.43 | 0.46 | 0.46 | 74 | 1010.0 |
| 20260507141048 | 11 | 153 | 3.2 | 14.5 | 0.38 | 0.41 | 0.41 | 77 | 1010.1 |
| 20260507140547 | 12 | 86 | 4.8 | 12.9 | 0.36 | 0.38 | 0.38 | 77 | 1010.3 |
| 20260507140056 | 11 | 70 | 4.8 | 14.5 | 0.36 | 0.36 | 0.36 | 76 | 1010.3 |
| 20260507135544 | 12 | 150 | 4.8 | 16.1 | 0.33 | 0.36 | 0.36 | 76 | 1010.4 |
| 20260507135045 | 12 | 176 | 4.8 | 24.1 | 0.28 | 0.28 | 0.28 | 75 | 1010.6 |
| 20260507134556 | 12 | 147 | 8.0 | 24.1 | 0.18 | 0.18 | 0.18 | 72 | 1010.7 |
| 20260507134042 | 12 | 152 | 9.7 | 19.3 | 0.08 | 0.08 | 0.08 | 72 | 1010.6 |
| 20260507133543 | 12 | 139 | 8.0 | 24.1 | 0.00 | 0.00 | 0.00 | 71 | 1010.4 |
| 20260507133101 | 12 | 155 | 9.7 | 24.1 | 0.00 | 0.00 | 0.00 | 72 | 1010.2 |
| 20260507132542 | 12 | 166 | 8.0 | 17.7 | 0.00 | 0.00 | 0.00 | 72 | 1010.0 |
| 20260507132042 | 13 | 108 | 6.4 | 17.7 | 0.00 | 0.00 | 0.00 | 72 | 1009.9 |
| 20260507131607 | 13 | 65 | 6.4 | 17.7 | 0.00 | 0.00 | 0.00 | 71 | 1009.8 |
| 20260507131044 | 13 | 161 | 4.8 | 17.7 | 0.00 | 0.00 | 0.00 | 70 | 1009.8 |
| 20260507130544 | 13 | 144 | 6.4 | 20.9 | 0.00 | 0.00 | 0.00 | 69 | 1009.8 |
| 20260507130056 | 13 | 134 | 9.7 | 20.9 | 0.00 | 0.00 | 0.00 | 67 | 1009.7 |
| 20260507125542 | 14 | 107 | 9.7 | 20.9 | 0.00 | 0.00 | 0.00 | 64 | 1009.7 |
| 20260507125045 | 16 | 112 | 6.4 | 16.1 | 0.00 | 0.00 | 0.00 | 59 | 1009.7 |
| 20260507124556 | 16 | 163 | 8.0 | 14.5 | 0.00 | 0.00 | 0.00 | 58 | 1009.5 |
| 20260507124044 | 16 | 170 | 6.4 | 16.1 | 0.00 | 0.00 | 0.00 | 57 | 1009.5 |
| 20260507123543 | 16 | 176 | 8.0 | 16.1 | 0.00 | 0.00 | 0.00 | 56 | 1009.6 |
| 20260507123110 | 16 | 180 | 3.2 | 14.5 | 0.00 | 0.00 | 0.00 | 55 | 1009.6 |
| 20260507122545 | 16 | 172 | 3.2 | 12.9 | 0.00 | 0.00 | 0.00 | 56 | 1009.6 |
| 20260507122047 | 16 | 154 | 4.8 | 12.9 | 0.00 | 0.00 | 0.00 | 55 | 1009.6 |
| 20260507121552 | 16 | 215 | 4.8 | 14.5 | 0.00 | 0.00 | 0.00 | 55 | 1009.6 |
| 20260507121042 | 16 | 152 | 4.8 | 14.5 | 0.00 | 0.00 | 0.00 | 55 | 1009.7 |
| 20260507120541 | 16 | 159 | 1.6 | 14.5 | 0.00 | 0.00 | 0.00 | 54 | 1009.7 |
| 20260507120053 | 16 | 79 | 1.6 | 14.5 | 0.00 | 0.00 | 0.00 | 55 | 1009.5 |
| 20260507115542 | 16 | 178 | 6.4 | 14.5 | 0.00 | 0.00 | 0.00 | 55 | 1009.5 |
| 20260507115041 | 16 | 244 | 3.2 | 14.5 | 0.00 | 0.00 | 0.00 | 55 | 1009.6 |
| 20260507114558 | 16 | 218 | 6.4 | 14.5 | 0.00 | 0.00 | 0.00 | 55 | 1009.7 |
| 20260507114043 | 16 | 148 | 1.6 | 9.7 | 0.00 | 0.00 | 0.00 | 56 | 1009.7 |
| 20260507113541 | 16 | 170 | 1.6 | 16.1 | 0.00 | 0.00 | 0.00 | 56 | 1009.8 |
| 20260507113051 | 16 | 173 | 4.8 | 17.7 | 0.00 | 0.00 | 0.00 | 56 | 1010.0 |
| 20260507112544 | 16 | 176 | 8.0 | 17.7 | 0.00 | 0.00 | 0.00 | 56 | 1010.0 |
| 20260507112041 | 16 | 0 | 1.6 | 12.9 | 0.00 | 0.00 | 0.00 | 55 | 1010.0 |
| 20260507111551 | 16 | 122 | 3.2 | 12.9 | 0.00 | 0.00 | 0.00 | 55 | 1010.2 |
| 20260507111044 | 16 | 0 | 6.4 | 12.9 | 0.00 | 0.00 | 0.00 | 56 | 1010.3 |
| 20260507110544 | 16 | 171 | 3.2 | 12.9 | 0.00 | 0.00 | 0.00 | 55 | 1010.3 |
| 20260507110055 | 17 | 182 | 1.6 | 8.0 | 0.00 | 0.00 | 0.00 | 54 | 1010.3 |
| 20260507105541 | 17 | 0 | 0.0 | 8.0 | 0.00 | 0.00 | 0.00 | 56 | 1010.4 |
| 20260507105045 | 16 | 171 | 3.2 | 8.0 | 0.00 | 0.00 | 0.00 | 57 | 1010.4 |
| 20260507104558 | 16 | 181 | 1.6 | 12.9 | 0.00 | 0.00 | 0.00 | 58 | 1010.5 |
| 20260507104044 | 15 | 73 | 1.6 | 12.9 | 0.00 | 0.00 | 0.00 | 59 | 1010.5 |
| 20260507103546 | 15 | 126 | 3.2 | 9.7 | 0.00 | 0.00 | 0.00 | 59 | 1010.7 |
| 20260507103048 | 15 | 107 | 1.6 | 12.9 | 0.00 | 0.00 | 0.00 | 58 | 1010.8 |
| 20260507102545 | 15 | 41 | 3.2 | 14.5 | 0.00 | 0.00 | 0.00 | 60 | 1010.8 |
| 20260507102045 | 15 | 179 | 3.2 | 14.5 | 0.00 | 0.00 | 0.00 | 60 | 1010.8 |
| 20260507101550 | 15 | 188 | 3.2 | 14.5 | 0.00 | 0.00 | 0.00 | 60 | 1011.0 |
| 20260507101045 | 15 | 153 | 1.6 | 11.3 | 0.00 | 0.00 | 0.00 | 60 | 1011.0 |
| 20260507100542 | 15 | 77 | 4.8 | 11.3 | 0.00 | 0.00 | 0.00 | 60 | 1011.0 |
| 20260507100059 | 16 | 5 | 3.2 | 8.0 | 0.00 | 0.00 | 0.00 | 59 | 1011.1 |
| 20260507095545 | 15 | 0 | 3.2 | 14.5 | 0.00 | 0.00 | 0.00 | 61 | 1011.0 |
| 20260507095045 | 15 | 0 | 1.6 | 14.5 | 0.00 | 0.00 | 0.00 | 60 | 1010.9 |
| 20260507094550 | 15 | 74 | 3.2 | 14.5 | 0.00 | 0.00 | 0.00 | 61 | 1010.9 |
| 20260507094045 | 15 | 346 | 3.2 | 11.3 | 0.00 | 0.00 | 0.00 | 61 | 1010.9 |
| 20260507093545 | 14 | 56 | 3.2 | 9.7 | 0.00 | 0.00 | 0.00 | 62 | 1010.9 |
| 20260507093052 | 14 | 18 | 1.6 | 12.9 | 0.00 | 0.00 | 0.00 | 65 | 1010.9 |
| 20260507092545 | 13 | 163 | 3.2 | 12.9 | 0.00 | 0.00 | 0.00 | 63 | 1010.9 |
| 20260507092043 | 14 | 191 | 4.8 | 11.3 | 0.00 | 0.00 | 0.00 | 63 | 1010.9 |
| 20260507091552 | 14 | 116 | 1.6 | 11.3 | 0.00 | 0.00 | 0.00 | 63 | 1011.0 |
| 20260507091045 | 14 | 205 | 3.2 | 14.5 | 0.00 | 0.00 | 0.00 | 61 | 1010.9 |
| 20260507090543 | 14 | 66 | 1.6 | 14.5 | 0.00 | 0.00 | 0.00 | 62 | 1010.9 |
| 20260507090100 | 14 | 1 | 4.8 | 17.7 | 0.00 | 0.00 | 0.00 | 61 | 1010.9 |
| 20260507085544 | 14 | 114 | 6.4 | 17.7 | 0.00 | 0.00 | 0.00 | 63 | 1010.9 |
| 20260507085043 | 14 | 12 | 11.3 | 17.7 | 0.00 | 0.00 | 0.00 | 62 | 1010.9 |
| 20260507084556 | 13 | 0 | 3.2 | 12.9 | 0.00 | 0.00 | 0.00 | 64 | 1010.9 |
| 20260507084042 | 13 | 70 | 4.8 | 11.3 | 0.00 | 0.00 | 0.00 | 65 | 1010.9 |
| 20260507083544 | 13 | 81 | 0.0 | 9.7 | 0.00 | 0.00 | 0.00 | 65 | 1011.0 |
| 20260507083058 | 13 | 134 | 3.2 | 14.5 | 0.00 | 0.00 | 0.00 | 65 | 1010.9 |
| 20260507082544 | 13 | 55 | 4.8 | 14.5 | 0.00 | 0.00 | 0.00 | 67 | 1010.9 |
| 20260507082044 | 12 | 7 | 6.4 | 12.9 | 0.00 | 0.00 | 0.00 | 67 | 1010.9 |
| 20260507081556 | 12 | 62 | 3.2 | 9.7 | 0.00 | 0.00 | 0.00 | 67 | 1011.0 |
| 20260507081045 | 12 | 118 | 1.6 | 11.3 | 0.00 | 0.00 | 0.00 | 67 | 1011.0 |
| 20260507080544 | 12 | 39 | 4.8 | 11.3 | 0.00 | 0.00 | 0.00 | 67 | 1010.9 |
| 20260507075545 | 12 | 70 | 4.8 | 8.0 | 0.00 | 0.00 | 0.00 | 67 | 1010.9 |
| 20260507075045 | 12 | 338 | 3.2 | 14.5 | 0.00 | 0.00 | 0.00 | 68 | 1010.9 |
| 20260507074550 | 12 | 28 | 1.6 | 14.5 | 0.00 | 0.00 | 0.00 | 68 | 1010.7 |
| 20260507074042 | 12 | 64 | 6.4 | 14.5 | 0.00 | 0.00 | 0.00 | 68 | 1010.7 |
| 20260507073548 | 12 | 16 | 3.2 | 16.1 | 0.00 | 0.00 | 0.00 | 68 | 1010.7 |
| 20260507073051 | 12 | 76 | 4.8 | 16.1 | 0.00 | 0.00 | 0.00 | 68 | 1010.7 |
| 20260507072544 | 12 | 37 | 1.6 | 9.7 | 0.00 | 0.00 | 0.00 | 68 | 1010.7 |
| 20260507072045 | 12 | 36 | 3.2 | 9.7 | 0.00 | 0.00 | 0.00 | 68 | 1010.8 |
| 20260507071553 | 12 | 22 | 1.6 | 6.4 | 0.00 | 0.00 | 0.00 | 68 | 1010.8 |
| 20260507071044 | 12 | 26 | 0.0 | 8.0 | 0.00 | 0.00 | 0.00 | 68 | 1010.8 |
| 20260507070541 | 12 | 63 | 0.0 | 8.0 | 0.00 | 0.00 | 0.00 | 68 | 1010.8 |
| 20260507070058 | 12 | 0 | 3.2 | 9.7 | 0.00 | 0.00 | 0.00 | 68 | 1010.8 |